{"data":{"norad_id":47621,"intl_designator":"2021-012B","name":"STARLINK-1609","alt_names":[],"object_type":"PAYLOAD","status":"ACTIVE","operator":null,"country":"US","launch_date":"2021-02-16","launch_site_code":"AFETR","launch_vehicle":null,"mission":null,"orbit_class":"UNKNOWN","rcs_meters":null,"size_class":null,"mass_kg":null,"dimensions":null,"purposes":["comms"],"wikipedia_slug":null,"has_3d_model":false,"image_url":null,"decayed_at":null,"tle_current":{"epoch":"2026-05-25T04:38:19.531104Z","epoch_age_seconds":68940,"freshness":"FRESH","line1":"1 47621U 21012B   26145.19328161  .00066590  00000+0  14687-2 0  9998","line2":"2 47621  53.1583  65.4092 0004974  92.3952 267.7624 15.43300474291868","mean_motion":15.43300474,"eccentricity":0.0004974,"inclination_deg":53.1583,"raan_deg":65.4092,"arg_perigee_deg":92.3952,"mean_anomaly_deg":267.7624,"bstar":0.0014687,"rev_number":29186,"period_min":93.306522239816,"perigee_km":432.98683609991,"apogee_km":439.76591400541,"semimajor_km":6814.5133750527,"source":"CELESTRAK","updated_at":"2026-05-25T13:38:16.559248Z"}}}